Location: Bottom School (historical)
(37.9078°N, 89.3593°W)
Time: 00:09:55
(UTC+00:00)

STRAND 1 - Pass Details

Date: 02 April 2023
Orbit: 767 x 779 km, 98.4° (Epoch: 28 May)

Event Time Altitude Azimuth Distance (km) Brightness Sun altitude
Rises 10:52:48 0° 132° (SE) 3,244 ? -10.3°
Reaches altitude 10° 10:55:30 10° 118° (ESE) 2,319 ? -9.7°
Maximum altitude 10:59:29 24° 67° (ENE) 1,577 ? -9.0°
Drops below altitude 10° 11:03:29 10° 15° (NNE) 2,324 ? -8.2°
Sets 11:06:11 0° 2° (N) 3,253 ? -7.7°
